Regional Weather Roundup
Issued by NWS State College, PA

Home | Current Version | Previous Version | Graphics & Text | Print | Product List | Glossary On
Versions: 1 2 3 4 5 6 7 8 9 10 11 12 13 14 15 16 17 18 19 20 21 22 23 24 25 26 27 28 29 30 31 32 33 34 35 36 37 38 39 40 41 42 43 44 45 46 47 48 49 50
000
ASUS41 KCTP 111010
RWRCTP

REGIONAL WEATHER ROUNDUP
NATIONAL WEATHER SERVICE STATE COLLEGE PA
500 AM EST THU FEB 11 2016

Note: "fair" indicates few or no clouds below 12,000 feet with no
significant weather and/or obstructions to visibility.

* = STATION THAT DOES NOT REPORT PRECIPITATION /E.G. RAIN...SNOW...ETC/
    THUNDER OR FOG.

PAZ002>004-007>009-013>016-020>023-029>032-111100-
WESTERN PENNSYLVANIA

CITY           SKY/WX    TMP DP  RH WIND       PRES   REMARKS
ERIE           CLOUDY    16   5  62 W16G29    29.95R WCI   1
MEADVILLE      LGT SNOW  11   1  64 W14G22    29.90R WCI  -5
FRANKLIN*      MOCLDY     9   0  66 NW9G16    29.91R WCI  -5
NEW CASTLE     FLURRIES  11   6  81 W8        29.99R WCI  -1
BEAVER COUNTY  NOT AVBL
BUTLER*        MOCLDY    12   7  79 W7        29.98R WCI   2
PITTSBURGH INT LGT SNOW  13   7  77 W8        29.97R WCI   2
PITTSBURGH     CLOUDY    13   6  74 W14G23    29.96R WCI  -2
INDIANA*       FOG       14  10  85 NW7G15    29.93R VSB 1/4 WCI   4
LATROBE        CLOUDY    14   7  73 W13G18    29.97R WCI   0
WASHINGTON CO* PTCLDY    12   3  67 W10G16    30.00R WCI  -1
$$

PAZ004>006-010>012-017>019-024>028-033>037-041-042-045-046-049>053-111100-
CENTRAL PENNSYLVANIA

CITY           SKY/WX    TMP DP  RH WIND       PRES   REMARKS
BRADFORD       LGT SNOW   8   0  69 W10G18    29.75R WCI  -6
DUBOIS         MOCLDY     9   0  67 W14G26    29.83R WCI  -7
CLEARFIELD     PTCLDY    12   0  58 W14G23    29.85R WCI  -3
JOHNSTOWN      LGT SNOW   9   2  73 W14G29    29.80R WCI  -7
ALTOONA        LGT SNOW  13   6  74 W15G22    29.87R WCI  -3
STATE COLLEGE  MOCLDY    15   6  68 W17       29.86R WCI  -2
WILLIAMSPORT   CLOUDY    18   8  65 W7        29.88R WCI   9
SELINSGROVE    LGT SNOW  18  12  77 CALM      29.90R
FT INDIANTOWN  LGT SNOW  18  15  85 W6        29.89R FOG     WCI  10
CAPITAL CITY   PTCLDY    19   5  54 W10G20    29.92R WCI   7
HARRISBURG     PTCLDY    21   9  59 W14       29.92R WCI   8
YORK           PTCLDY    18   5  57 W10       29.92R WCI   6
$$

PAZ038>040-043-044-047-048-054-055-060>062-067>071-111100-
EASTERN PENNSYLVANIA

CITY           SKY/WX    TMP DP  RH WIND       PRES   REMARKS
SCRANTON       CLEAR     14   1  56 W9        29.80R WCI   2
MOUNT POCONO   CLEAR     11  -1  58 NW14      29.69R WCI  -5
ALLENTOWN      CLEAR     19   4  51 W6        29.86R WCI  11
QUAKERTOWN*    NOT AVBL
READING        CLOUDY    20  12  71 W10       29.89R WCI   9
LANCASTER      CLOUDY    18   7  62 W13       29.90R WCI   5
COATESVILLE    MOSUNNY   16   9  73 W9        29.88R WCI   4
POTTSTOWN      CLEAR     19  12  74 W8G17     29.89R WCI   9
BLUE BELL        N/A     21  12  68 W5        29.87R WCI  15
DOYLESTOWN     CLEAR     18   7  62 W6        29.85R WCI  10
WILLOW GROVE   NOT AVBL
NORTH PHILA    CLEAR     23  11  60 W13G20    29.90R WCI  11
PHILADELPHIA   PTCLDY    24  11  57 W14G24    29.91R WCI  12
$$



USA.gov is the U.S. government's official web portal to all federal, state and local government web resources and services.